DELTA 1 DEB, 10719

Orbit data source: Space-Track

DELTA 1 DEB, 10719 is space debris in SSO originally from a launch on Thu, 29 Jul 1976 UTC launched from the Air Force Western Test Range (AFWTR). Debris objects in space refer to the collection of defunct objects orbiting the Earth. Examples of debris include non-operational satellites, rocket bodies, and fragments generated from explosions, collisions, or faulty payload assembly.

Loading next visibility...
Identifier
10719, 1976-077AQ
Orbit
SSO
Country
Flag of USUS
Related business
Manufacturer
Unknown
Mission
Spacecraft
Bus & Motor
Unknown
Mass
Unknown
Launch date (UTC)
1976-07-29 (49 years ago)
Launch vehicle
Unknown
Launch site
Air Force Western Test Range (AFWTR)
Object type
Payload
Rocket body
Debris
Shape & HBR
Unknown shape, 0.1 m
Radar Cross Section
Small (<0.1 m²)

Expand to show TLE details & history
Last TLE update: 14 hours ago

TLE from 14 hours ago
0 DELTA 1 DEB
1 10719U 76077AQ  25291.06346561  .00000619  00000-0  73965-2 0  9993
2 10719 101.8979 317.2867 0235294 151.0763 222.8619 12.01273084152272
Epoch: 2025-10-18T01:31Z
TLE epoch observation values (Epoch: 2025-10-18T01:31:23.428Z)
Latitude
11.84145°
Longitude
-94.88076°
Altitude
1,817.848 km
Speed
6.915 km/s
True Right ascension
20h 59m 04s
True Declination
11° 46' 53"
Sunlit
Object was in daylight at epoch
Visualization orbit readout
Latitude
Unknown
Longitude
Unknown
Altitude
Unknown
Speed
Unknown
Apparent Right ascension
Unknown
Apparent Declination
Unknown
Sunlit
N/A
Visualization observer readout
Local Sidereal Time
10:38:30
Azimuth
Unknown
Elevation
Unknown
Doppler factor
Unknown
Orbital elements
Apogee altitude
1,862.217 km
Perigee altitude
1,483.35 km
Semi-major axis
8,050.92 km
Eccentricity
0.02353
Inclination
101.8979°
RAAN
317.2867°
Arg. of periapsis
151.0763°
True anomaly
221.06684°
Mean anomaly
222.8619°
Eccentric anomaly
221.96051°
Mean motion
3.00452 °/min
Orbital period
119.82 mins
BSTAR
0.0073965
Loading maneuver chart data...
Computing Atmospheric mass density...
Loading historical data...
Loading historical data...
Loading historical data...
Loading historical data...
Loading historical data...
Loading historical data...
Loading historical data...

Documentation

Showing up to 5 results
|